Weather History for Monett, MO

Change the Weather History Date:

Thursday, December 12, 2013

  Actual Average (KJLN) Record (KJLN)
Temperature  
Mean Temperature 24 °F 38 °F  
Max Temperature 37 °F 48 °F 66 °F (1948)
Min Temperature 12 °F 28 °F 1 °F (1962)
Degree Days  
Heating Degree Days 40 27  
Month to date heating degree days 307  
Since 1 July heating degree days 1064  
Cooling Degree Days 0 0  
Month to date cooling degree days 0  
Year to date cooling degree days 1698  
Moisture  
Dew Point 16 °F    
Average Humidity 65    
Maximum Humidity 85    
Minimum Humidity 55    
Precipitation  
Precipitation 0.00 in 0.09 in 1.22 in (1991)
Month to date precipitation 1.21  
Year to date precipitation 44.94  
Sea Level Pressure  
Sea Level Pressure 30.43 in    
Wind  
Wind Speed 7 mph (South)    
Max Wind Speed 15 mph    
Max Gust Speed 18 mph    
Visibility 10 miles    
Events      
T = Trace of Precipitation, MM = Missing Value Source: NWS Daily Summary

Daily Weather History Graph

Daily Weather History Graph

Search for Another Location

Airport:

Trip Planner

Search our weather history database for the weather conditions in past years. The results will help you decide how hot, cold, wet, or windy it might be!

Date:

Astronomy

Dec. 12, 2013 Rise Set
Actual Time 7:19 AM CST 4:59 PM CST
Civil Twilight 6:50 AM CST 5:28 PM CST
Nautical Twilight 6:18 AM CST 6:01 PM CST
Astronomical Twilight 5:46 AM CST 6:32 PM CST
Moon 2:03 PM CST (12/12) 2:48 AM CST (12/12)
Length of Visible Light 10h 37m
Length of Day
9h 40m
Waxing Gibbous, 80% of the Moon is Illuminated
Dec 12
Waxing Gibbous
Dec 17
Full
Dec 25
Last Quarter
Jan 1
New
Jan 7
First Quarter

Hourly Weather History & Observations

Time (CST) Temp. Windchill Dew Point Humidity Pressure Visibility Wind Dir Wind Speed Gust Speed Precip Events Conditions
12:15 AM 19.4 °F 11.5 °F 8.6 °F 63% 30.57 in 10.0 mi East 5.8 mph - N/A   Clear
12:35 AM 17.6 °F 8.2 °F 8.6 °F 68% 30.57 in 10.0 mi East 6.9 mph - N/A   Clear
12:55 AM 17.6 °F 7.3 °F 6.8 °F 63% 30.55 in 10.0 mi ESE 8.1 mph - N/A   Clear
1:15 AM 15.8 °F 6.1 °F 6.8 °F 68% 30.54 in 10.0 mi ESE 6.9 mph - N/A   Clear
1:35 AM 15.8 °F 7.2 °F 8.6 °F 73% 30.54 in 10.0 mi ESE 5.8 mph - N/A   Clear
1:55 AM 15.8 °F 6.1 °F 8.6 °F 73% 30.54 in 10.0 mi ESE 6.9 mph - N/A   Clear
2:15 AM 15.8 °F 10.2 °F 8.6 °F 73% 30.55 in 10.0 mi ESE 3.5 mph - N/A   Clear
2:35 AM 17.6 °F 12.3 °F 8.6 °F 68% 30.55 in 10.0 mi ESE 3.5 mph - N/A   Clear
2:55 AM 14.0 °F 5.1 °F 8.6 °F 79% 30.54 in 10.0 mi SE 5.8 mph - N/A   Clear
3:15 AM 15.8 °F 8.6 °F 8.6 °F 73% 30.54 in 10.0 mi ESE 4.6 mph - N/A   Clear
3:35 AM 15.8 °F 8.6 °F 8.6 °F 73% 30.54 in 10.0 mi SE 4.6 mph - N/A   Clear
3:55 AM 15.8 °F 10.2 °F 8.6 °F 73% 30.53 in 10.0 mi ESE 3.5 mph - N/A   Clear
4:15 AM 14.0 °F 6.5 °F 8.6 °F 79% 30.53 in 10.0 mi SSE 4.6 mph - N/A   Clear
4:35 AM 14.0 °F 8.2 °F 8.6 °F 79% 30.52 in 10.0 mi SSE 3.5 mph - N/A   Clear
4:55 AM 12.2 °F 4.3 °F 6.8 °F 79% 30.51 in 10.0 mi SSE 4.6 mph - N/A   Clear
5:15 AM 12.2 °F 4.3 °F 6.8 °F 79% 30.51 in 10.0 mi SSE 4.6 mph - N/A   Clear
5:35 AM 12.2 °F 4.3 °F 6.8 °F 79% 30.51 in 10.0 mi SSW 4.6 mph - N/A   Clear
5:55 AM 12.2 °F 2.9 °F 8.6 °F 85% 30.51 in 10.0 mi SSW 5.8 mph - N/A   Clear
6:15 AM 14.0 °F 6.5 °F 8.6 °F 79% 30.51 in 10.0 mi South 4.6 mph - N/A   Clear
6:35 AM 14.0 °F 6.5 °F 8.6 °F 79% 30.51 in 10.0 mi South 4.6 mph - N/A   Clear
6:55 AM 14.0 °F 6.5 °F 8.6 °F 79% 30.51 in 10.0 mi SSE 4.6 mph - N/A   Clear
7:15 AM 17.6 °F 9.3 °F 8.6 °F 68% 30.51 in 10.0 mi South 5.8 mph - N/A   Clear
7:35 AM 17.6 °F 9.3 °F 10.4 °F 73% 30.51 in 10.0 mi South 5.8 mph - N/A   Clear
7:55 AM 19.4 °F 10.4 °F 10.4 °F 68% 30.51 in 10.0 mi South 6.9 mph - N/A   Clear
8:15 AM 19.4 °F 11.5 °F 10.4 °F 68% 30.52 in 10.0 mi SSW 5.8 mph - N/A   Clear
8:35 AM 19.4 °F 11.5 °F 12.2 °F 74% 30.53 in 10.0 mi SSW 5.8 mph - N/A   Clear
8:55 AM 21.2 °F 12.6 °F 14.0 °F 74% 30.53 in 10.0 mi SSW 6.9 mph - N/A   Clear
9:15 AM 23.0 °F 14.7 °F 14.0 °F 68% 30.53 in 10.0 mi SSW 6.9 mph - N/A   Clear
9:35 AM 26.6 °F 19.1 °F 17.6 °F 69% 30.53 in 10.0 mi South 6.9 mph - N/A   Clear
9:55 AM 26.6 °F 16.2 °F 17.6 °F 69% 30.53 in 10.0 mi SSW 11.5 mph - N/A   Clear
10:15 AM 28.4 °F 17.5 °F 17.6 °F 64% 30.52 in 10.0 mi SSW 13.8 mph - N/A   Clear
10:35 AM 30.2 °F 20.2 °F 19.4 °F 64% 30.52 in 10.0 mi SSW 12.7 mph 17.3 mph N/A   Clear
10:55 AM 32.0 °F 22.5 °F 19.4 °F 60% 30.51 in 10.0 mi SW 12.7 mph - N/A   Clear
11:15 AM 32.0 °F 22.5 °F 19.4 °F 60% 30.50 in 10.0 mi SSW 12.7 mph - N/A   Clear
11:35 AM 32.0 °F 22.5 °F 19.4 °F 60% 30.49 in 10.0 mi SSW 12.7 mph - N/A   Clear
11:55 AM 32.0 °F 22.1 °F 19.4 °F 60% 30.48 in 10.0 mi SSW 13.8 mph - N/A   Clear
12:15 PM 33.8 °F 24.8 °F 19.4 °F 56% 30.47 in 10.0 mi SW 12.7 mph 17.3 mph N/A   Clear
12:35 PM 33.8 °F 24.8 °F 21.2 °F 60% 30.45 in 10.0 mi SSW 12.7 mph - N/A   Clear
12:55 PM 35.6 °F 28.0 °F 21.2 °F 56% 30.44 in 10.0 mi SW 10.4 mph - N/A   Clear
1:15 PM 35.6 °F 27.5 °F 21.2 °F 56% 30.43 in 10.0 mi SW 11.5 mph - N/A   Clear
1:35 PM 35.6 °F 27.1 °F 21.2 °F 56% 30.42 in 10.0 mi SSW 12.7 mph - N/A   Clear
1:55 PM 35.6 °F 27.1 °F 23.0 °F 60% 30.40 in 10.0 mi SSW 12.7 mph 18.4 mph N/A   Clear
2:15 PM 35.6 °F 27.1 °F 23.0 °F 60% 30.40 in 10.0 mi SW 12.7 mph - N/A   Clear
2:35 PM 35.6 °F 27.5 °F 23.0 °F 60% 30.39 in 10.0 mi SSW 11.5 mph 17.3 mph N/A   Clear
2:55 PM 37.4 °F 28.5 °F 23.0 °F 56% 30.39 in 10.0 mi SSW 15.0 mph - N/A   Clear
3:15 PM 35.6 °F 28.6 °F 23.0 °F 60% 30.38 in 10.0 mi SSW 9.2 mph - N/A   Clear
3:35 PM 35.6 °F 29.9 °F 23.0 °F 60% 30.37 in 10.0 mi SSW 6.9 mph - N/A   Clear
3:55 PM 35.6 °F 29.2 °F 23.0 °F 60% 30.37 in 10.0 mi SSW 8.1 mph - N/A   Clear
4:15 PM 35.6 °F 29.9 °F 23.0 °F 60% 30.36 in 10.0 mi South 6.9 mph - N/A   Clear
4:35 PM 35.6 °F 29.9 °F 21.2 °F 56% 30.34 in 10.0 mi South 6.9 mph - N/A   Clear
4:55 PM 35.6 °F 28.0 °F 21.2 °F 56% 30.34 in 10.0 mi South 10.4 mph - N/A   Clear
5:15 PM 33.8 °F 26.4 °F 21.2 °F 60% 30.33 in 10.0 mi South 9.2 mph - N/A   Clear
5:35 PM 33.8 °F 25.8 °F 19.4 °F 56% 30.32 in 10.0 mi South 10.4 mph - N/A   Clear
5:55 PM 32.0 °F 24.8 °F 19.4 °F 60% 30.33 in 10.0 mi South 8.1 mph - N/A   Clear
6:15 PM 32.0 °F 25.6 °F 19.4 °F 60% 30.33 in 10.0 mi South 6.9 mph - N/A   Clear
6:35 PM 32.0 °F 25.6 °F 19.4 °F 60% 30.33 in 10.0 mi South 6.9 mph - N/A   Clear
6:55 PM 32.0 °F 24.8 °F 17.6 °F 55% 30.32 in 10.0 mi South 8.1 mph - N/A   Clear
7:15 PM 32.0 °F 25.6 °F 17.6 °F 55% 30.32 in 10.0 mi South 6.9 mph - N/A   Clear
7:35 PM 32.0 °F 24.8 °F 17.6 °F 55% 30.31 in 10.0 mi South 8.1 mph - N/A   Clear
7:55 PM 32.0 °F 24.2 °F 17.6 °F 55% 30.30 in 10.0 mi South 9.2 mph - N/A   Clear
8:15 PM 30.2 °F 21.9 °F 17.6 °F 60% 30.30 in 10.0 mi South 9.2 mph - N/A   Clear
8:35 PM 32.0 °F 23.6 °F 17.6 °F 55% 30.29 in 10.0 mi South 10.4 mph - N/A   Clear
8:55 PM 30.2 °F 20.8 °F 19.4 °F 64% 30.29 in 10.0 mi South 11.5 mph - N/A   Clear
9:15 PM 32.0 °F 24.2 °F 19.4 °F 60% 30.28 in 10.0 mi South 9.2 mph - N/A   Clear
9:35 PM 30.2 °F 21.3 °F 19.4 °F 64% 30.27 in 10.0 mi South 10.4 mph - N/A   Clear
9:55 PM 32.0 °F 24.2 °F 19.4 °F 60% 30.27 in 10.0 mi South 9.2 mph - N/A   Clear
10:15 PM 30.2 °F 21.9 °F 19.4 °F 64% 30.27 in 10.0 mi South 9.2 mph - N/A   Clear
10:35 PM 32.0 °F 24.2 °F 19.4 °F 60% 30.27 in 10.0 mi South 9.2 mph - N/A   Clear
10:55 PM 32.0 °F 24.2 °F 19.4 °F 60% 30.26 in 10.0 mi South 9.2 mph - N/A   Clear
11:15 PM 30.2 °F 22.6 °F 19.4 °F 64% 30.25 in 10.0 mi South 8.1 mph - N/A   Clear
11:35 PM 30.2 °F 21.9 °F 21.2 °F 69% 30.24 in 10.0 mi South 9.2 mph - N/A   Clear
11:55 PM 30.2 °F 22.6 °F 21.2 °F 69% 30.23 in 10.0 mi South 8.1 mph - N/A   Clear